Time,TemperatureF,DewpointF,PressureIn,WindDirection,WindDirectionDegrees,WindSpeedMPH,WindSpeedGustMPH,Humidity,HourlyPrecipIn,Conditions,Clouds,dailyrainin,SoftwareType,DateUTC
2013-04-14 00:00:00,61.0,52.0,30.02,SSE,158,0.0,0.4,72,0.00,,,0.00,WUHU216HW,2013-04-14 04:00:00,
2013-04-14 00:05:00,60.8,51.8,30.01,East,90,0.7,0.7,72,0.00,,,0.00,WUHU216HW,2013-04-14 04:05:00,
2013-04-14 00:10:00,60.7,51.7,30.02,East,90,0.0,0.7,72,0.00,,,0.00,WUHU216HW,2013-04-14 04:10:00,
2013-04-14 00:15:00,60.7,51.7,30.02,East,90,0.0,0.4,72,0.00,,,0.00,WUHU216HW,2013-04-14 04:15:00,
2013-04-14 00:20:00,60.5,51.8,30.02,SSW,203,0.0,0.0,73,0.00,,,0.00,WUHU216HW,2013-04-14 04:20:00,
2013-04-14 00:25:00,60.3,52.0,30.02,SSW,203,0.0,0.0,74,0.00,,,0.00,WUHU216HW,2013-04-14 04:25:00,
2013-04-14 00:30:00,60.1,51.8,30.02,SSW,203,0.0,0.0,74,0.00,,,0.00,WUHU216HW,2013-04-14 04:30:00,
2013-04-14 00:35:00,59.9,52.0,30.02,SSW,203,0.0,0.0,75,0.00,,,0.00,WUHU216HW,2013-04-14 04:35:00,
2013-04-14 00:40:00,59.8,52.2,30.02,SSW,203,0.0,0.0,76,0.00,,,0.00,WUHU216HW,2013-04-14 04:40:00,
2013-04-14 00:45:00,59.6,52.0,30.02,WNW,293,0.0,0.0,76,0.00,,,0.00,WUHU216HW,2013-04-14 04:45:00,
2013-04-14 00:50:00,59.6,52.0,30.02,WNW,293,0.0,0.0,76,0.00,,,0.00,WUHU216HW,2013-04-14 04:50:00,
2013-04-14 00:55:00,59.4,51.8,30.02,WNW,293,0.0,0.0,76,0.00,,,0.00,WUHU216HW,2013-04-14 04:55:00,
2013-04-14 01:00:00,59.4,51.8,30.02,WNW,293,0.0,0.0,76,0.00,,,0.00,WUHU216HW,2013-04-14 05:00:00,
2013-04-14 01:05:00,59.0,51.8,30.02,North,0,0.4,0.4,77,0.00,,,0.00,WUHU216HW,2013-04-14 05:05:00,
2013-04-14 01:10:00,58.9,51.7,30.02,NNE,23,0.4,0.7,77,0.00,,,0.00,WUHU216HW,2013-04-14 05:10:00,
2013-04-14 01:15:00,58.9,51.7,30.02,NNE,23,0.7,0.9,77,0.00,,,0.00,WUHU216HW,2013-04-14 05:15:00,
2013-04-14 01:20:00,58.7,51.5,30.02,NNE,23,0.0,0.9,77,0.00,,,0.00,WUHU216HW,2013-04-14 05:20:00,
2013-04-14 01:25:00,58.7,51.5,30.02,NNE,23,0.0,0.4,77,0.00,,,0.00,WUHU216HW,2013-04-14 05:25:00,
2013-04-14 01:30:00,58.5,51.7,30.01,NNE,23,0.0,0.0,78,0.00,,,0.00,WUHU216HW,2013-04-14 05:30:00,
2013-04-14 01:35:00,58.3,51.5,30.01,NNE,23,0.4,0.4,78,0.00,,,0.00,WUHU216HW,2013-04-14 05:35:00,
2013-04-14 01:40:00,58.1,51.7,30.01,NW,315,0.0,0.4,79,0.00,,,0.00,WUHU216HW,2013-04-14 05:40:00,
2013-04-14 01:45:00,57.8,51.3,30.00,NE,45,0.9,1.1,79,0.00,,,0.00,WUHU216HW,2013-04-14 05:45:00,
2013-04-14 01:50:00,57.6,51.1,30.01,NE,45,0.0,1.1,79,0.00,,,0.00,WUHU216HW,2013-04-14 05:50:00,
2013-04-14 01:55:00,57.6,51.1,30.01,NE,45,0.0,0.0,79,0.00,,,0.00,WUHU216HW,2013-04-14 05:55:00,
2013-04-14 02:00:00,57.4,51.3,30.01,NE,45,0.0,0.0,80,0.00,,,0.00,WUHU216HW,2013-04-14 06:00:00,
2013-04-14 02:05:00,57.4,51.3,30.01,NE,45,0.0,0.0,80,0.00,,,0.00,WUHU216HW,2013-04-14 06:05:00,
2013-04-14 02:10:00,57.4,51.3,30.02,WNW,293,0.0,0.0,80,0.00,,,0.00,WUHU216HW,2013-04-14 06:10:00,
2013-04-14 02:15:00,57.2,51.5,30.01,NE,45,0.9,0.9,81,0.00,,,0.00,WUHU216HW,2013-04-14 06:15:00,
2013-04-14 02:20:00,57.1,51.3,30.01,NE,45,0.7,0.9,81,0.00,,,0.00,WUHU216HW,2013-04-14 06:20:00,
2013-04-14 02:25:00,57.1,51.3,30.00,NE,45,0.0,0.9,81,0.00,,,0.00,WUHU216HW,2013-04-14 06:25:00,
2013-04-14 02:30:00,56.9,51.1,30.00,NE,45,0.0,0.7,81,0.00,,,0.00,WUHU216HW,2013-04-14 06:30:00,
2013-04-14 02:35:00,56.9,51.1,30.00,NE,45,0.0,0.4,81,0.00,,,0.00,WUHU216HW,2013-04-14 06:35:00,
2013-04-14 02:40:00,56.9,51.4,30.01,NE,45,0.0,0.4,82,0.00,,,0.00,WUHU216HW,2013-04-14 06:40:00,
2013-04-14 02:45:00,56.7,51.2,30.01,SSE,158,0.0,0.0,82,0.00,,,0.00,WUHU216HW,2013-04-14 06:45:00,
2013-04-14 02:50:00,56.5,51.0,30.00,ESE,113,0.0,0.0,82,0.00,,,0.00,WUHU216HW,2013-04-14 06:50:00,
2013-04-14 02:55:00,56.5,51.4,30.00,NE,45,0.2,1.3,83,0.00,,,0.00,WUHU216HW,2013-04-14 06:55:00,
2013-04-14 03:00:00,56.5,51.4,30.00,NE,45,0.0,1.3,83,0.00,,,0.00,WUHU216HW,2013-04-14 07:00:00,
2013-04-14 03:05:00,56.5,51.4,29.99,NE,45,0.0,1.1,83,0.00,,,0.00,WUHU216HW,2013-04-14 07:05:00,
2013-04-14 03:10:00,56.7,51.6,29.99,NE,45,0.0,1.1,83,0.00,,,0.00,WUHU216HW,2013-04-14 07:10:00,
2013-04-14 03:15:00,56.7,51.6,29.99,NE,45,0.0,0.0,83,0.00,,,0.00,WUHU216HW,2013-04-14 07:15:00,
2013-04-14 03:20:00,56.9,51.8,30.00,NE,45,0.0,0.0,83,0.00,,,0.00,WUHU216HW,2013-04-14 07:20:00,
2013-04-14 03:25:00,56.9,51.8,29.99,NE,45,1.3,1.3,83,0.00,,,0.00,WUHU216HW,2013-04-14 07:25:00,
2013-04-14 03:30:00,56.9,51.8,29.99,NE,45,0.4,1.8,83,0.00,,,0.00,WUHU216HW,2013-04-14 07:30:00,
2013-04-14 03:35:00,56.9,51.8,29.99,NE,45,0.0,1.8,83,0.00,,,0.00,WUHU216HW,2013-04-14 07:35:00,
2013-04-14 03:40:00,56.9,51.8,29.99,NE,45,0.0,0.0,83,0.00,,,0.00,WUHU216HW,2013-04-14 07:40:00,
2013-04-14 03:45:00,56.9,51.8,29.99,NE,45,1.1,1.1,83,0.00,,,0.00,WUHU216HW,2013-04-14 07:45:00,
2013-04-14 03:50:00,56.7,51.6,29.98,NE,45,0.4,1.8,83,0.00,,,0.00,WUHU216HW,2013-04-14 07:50:00,
2013-04-14 03:55:00,56.7,51.8,29.98,NE,45,0.7,1.8,84,0.00,,,0.00,WUHU216HW,2013-04-14 07:55:00,
2013-04-14 04:00:00,56.7,51.8,29.98,ENE,68,0.2,0.9,84,0.00,,,0.00,WUHU216HW,2013-04-14 08:00:00,
2013-04-14 04:05:00,56.7,51.8,29.99,SSW,203,0.7,0.7,84,0.00,,,0.00,WUHU216HW,2013-04-14 08:05:00,
2013-04-14 04:10:00,56.7,52.2,29.99,SSW,203,0.0,0.7,85,0.00,,,0.00,WUHU216HW,2013-04-14 08:10:00,
2013-04-14 04:15:00,56.5,51.7,29.99,SSW,203,0.0,0.4,84,0.00,,,0.00,WUHU216HW,2013-04-14 08:15:00,
2013-04-14 04:20:00,56.5,51.7,29.99,NE,45,0.4,0.4,84,0.00,,,0.00,WUHU216HW,2013-04-14 08:20:00,
2013-04-14 04:25:00,56.7,52.2,29.99,North,0,1.3,1.3,85,0.00,,,0.00,WUHU216HW,2013-04-14 08:25:00,
2013-04-14 04:30:00,56.7,52.2,29.99,North,0,0.0,1.3,85,0.00,,,0.00,WUHU216HW,2013-04-14 08:30:00,
2013-04-14 04:35:00,56.7,51.8,29.98,North,0,0.0,1.1,84,0.00,,,0.00,WUHU216HW,2013-04-14 08:35:00,
2013-04-14 04:40:00,56.9,52.0,29.99,WNW,293,0.0,0.7,84,0.00,,,0.00,WUHU216HW,2013-04-14 08:40:00,
2013-04-14 04:45:00,56.9,52.0,29.99,WNW,293,0.0,0.7,84,0.00,,,0.00,WUHU216HW,2013-04-14 08:45:00,
2013-04-14 04:50:00,57.1,52.6,29.99,WNW,293,0.0,0.9,85,0.00,,,0.00,WUHU216HW,2013-04-14 08:50:00,
2013-04-14 04:55:00,57.1,52.6,30.00,WNW,293,0.0,0.9,85,0.00,,,0.00,WUHU216HW,2013-04-14 08:55:00,
2013-04-14 05:00:00,57.2,52.7,30.00,WNW,293,0.0,0.0,85,0.00,,,0.00,WUHU216HW,2013-04-14 09:00:00,
2013-04-14 05:05:00,57.2,52.7,30.00,NNW,338,0.0,0.0,85,0.00,,,0.00,WUHU216HW,2013-04-14 09:05:00,
2013-04-14 05:10:00,57.2,52.7,30.00,NNW,338,0.0,0.0,85,0.00,,,0.00,WUHU216HW,2013-04-14 09:10:00,
2013-04-14 05:15:00,57.2,52.7,30.00,NNW,338,0.0,0.0,85,0.00,,,0.00,WUHU216HW,2013-04-14 09:15:00,
2013-04-14 05:20:00,57.2,52.7,30.00,NE,45,0.4,1.1,85,0.00,,,0.00,WUHU216HW,2013-04-14 09:20:00,
2013-04-14 05:25:00,57.2,52.7,30.00,NE,45,0.0,1.1,85,0.00,,,0.00,WUHU216HW,2013-04-14 09:25:00,
2013-04-14 05:30:00,57.2,52.7,30.00,NE,45,0.7,0.7,85,0.00,,,0.00,WUHU216HW,2013-04-14 09:30:00,
2013-04-14 05:35:00,57.1,52.6,30.00,NE,45,0.9,1.1,85,0.00,,,0.00,WUHU216HW,2013-04-14 09:35:00,
2013-04-14 05:40:00,57.1,52.6,30.00,NE,45,0.0,1.1,85,0.00,,,0.00,WUHU216HW,2013-04-14 09:40:00,
2013-04-14 05:45:00,57.1,52.6,30.00,NE,45,0.7,1.1,85,0.00,,,0.00,WUHU216HW,2013-04-14 09:45:00,
2013-04-14 05:50:00,56.9,52.4,29.99,NE,45,0.0,0.9,85,0.00,,,0.00,WUHU216HW,2013-04-14 09:50:00,
2013-04-14 05:55:00,56.9,52.4,29.99,NE,45,0.0,0.9,85,0.00,,,0.00,WUHU216HW,2013-04-14 09:55:00,
2013-04-14 06:00:00,56.9,52.4,29.99,NE,45,0.0,1.3,85,0.00,,,0.00,WUHU216HW,2013-04-14 10:00:00,
2013-04-14 06:05:00,56.9,52.4,30.00,NE,45,0.0,1.3,85,0.00,,,0.00,WUHU216HW,2013-04-14 10:05:00,
2013-04-14 06:10:00,56.9,52.4,30.00,NNE,23,0.0,0.4,85,0.00,,,0.00,WUHU216HW,2013-04-14 10:10:00,
2013-04-14 06:15:00,56.9,52.8,29.99,East,90,0.4,0.7,86,0.00,,,0.00,WUHU216HW,2013-04-14 10:15:00,
2013-04-14 06:20:00,56.5,53.0,29.99,SSE,158,1.1,1.8,88,0.00,,,0.00,WUHU216HW,2013-04-14 10:20:00,
2013-04-14 06:25:00,56.5,52.7,29.99,SE,135,0.4,1.8,87,0.00,,,0.00,WUHU216HW,2013-04-14 10:25:00,
2013-04-14 06:30:00,56.3,52.5,29.98,ESE,113,0.0,1.6,87,0.00,,,0.00,WUHU216HW,2013-04-14 10:30:00,
2013-04-14 06:35:00,56.5,52.7,29.99,NE,45,0.0,0.4,87,0.00,,,0.00,WUHU216HW,2013-04-14 10:35:00,
2013-04-14 06:40:00,56.5,53.0,29.99,North,0,0.4,1.1,88,0.00,,,0.00,WUHU216HW,2013-04-14 10:40:00,
2013-04-14 06:45:00,56.5,52.7,29.98,NNE,23,0.4,1.1,87,0.00,,,0.00,WUHU216HW,2013-04-14 10:45:00,
2013-04-14 06:50:00,56.5,52.7,29.98,NE,45,0.4,0.4,87,0.00,,,0.00,WUHU216HW,2013-04-14 10:50:00,
2013-04-14 06:55:00,56.7,52.8,29.98,NE,45,0.4,0.7,87,0.00,,,0.00,WUHU216HW,2013-04-14 10:55:00,
2013-04-14 07:00:00,56.7,52.8,29.99,NE,45,0.7,0.7,87,0.00,,,0.00,WUHU216HW,2013-04-14 11:00:00,
2013-04-14 07:05:00,56.7,52.8,29.99,NE,45,0.4,1.8,87,0.00,,,0.00,WUHU216HW,2013-04-14 11:05:00,
2013-04-14 07:10:00,56.9,53.0,29.99,NNE,23,0.0,1.8,87,0.00,,,0.00,WUHU216HW,2013-04-14 11:10:00,
2013-04-14 07:15:00,56.9,53.0,29.99,NW,315,0.0,0.4,87,0.00,,,0.00,WUHU216HW,2013-04-14 11:15:00,
2013-04-14 07:20:00,56.9,53.0,30.00,NNW,338,0.4,0.4,87,0.00,,,0.00,WUHU216HW,2013-04-14 11:20:00,
2013-04-14 07:25:00,56.9,53.0,29.99,NNE,23,0.7,0.7,87,0.00,,,0.00,WUHU216HW,2013-04-14 11:25:00,
2013-04-14 07:30:00,56.9,53.0,29.99,NNE,23,0.9,1.1,87,0.00,,,0.00,WUHU216HW,2013-04-14 11:30:00,
2013-04-14 07:35:00,57.1,53.2,30.00,NNE,23,0.4,1.1,87,0.00,,,0.00,WUHU216HW,2013-04-14 11:35:00,
2013-04-14 07:40:00,57.1,53.2,30.00,NE,45,0.7,1.1,87,0.00,,,0.00,WUHU216HW,2013-04-14 11:40:00,
2013-04-14 07:45:00,57.1,53.2,30.00,NE,45,0.0,1.1,87,0.00,,,0.00,WUHU216HW,2013-04-14 11:45:00,
2013-04-14 07:50:00,57.2,53.4,30.00,NE,45,0.0,0.9,87,0.00,,,0.00,WUHU216HW,2013-04-14 11:50:00,
2013-04-14 07:55:00,57.2,53.1,30.00,NE,45,0.9,1.1,86,0.00,,,0.00,WUHU216HW,2013-04-14 11:55:00,
2013-04-14 08:00:00,57.4,53.3,30.00,NE,45,1.3,1.3,86,0.00,,,0.00,WUHU216HW,2013-04-14 12:00:00,
2013-04-14 08:05:00,57.4,53.9,30.00,NNE,23,0.0,1.3,88,0.00,,,0.00,WUHU216HW,2013-04-14 12:05:00,
2013-04-14 08:10:00,57.6,53.7,30.01,WNW,293,0.0,0.4,87,0.00,,,0.00,WUHU216HW,2013-04-14 12:10:00,
2013-04-14 08:15:00,57.8,54.3,30.01,NW,315,0.0,0.4,88,0.00,,,0.00,WUHU216HW,2013-04-14 12:15:00,
2013-04-14 08:20:00,58.0,54.1,30.02,West,270,1.6,1.6,87,0.00,,,0.00,WUHU216HW,2013-04-14 12:20:00,
2013-04-14 08:25:00,58.0,54.1,30.02,West,270,0.0,1.8,87,0.00,,,0.00,WUHU216HW,2013-04-14 12:25:00,
2013-04-14 08:30:00,58.0,54.1,30.02,NW,315,0.0,1.8,87,0.00,,,0.00,WUHU216HW,2013-04-14 12:30:00,
2013-04-14 08:35:00,58.0,54.1,30.03,West,270,1.1,1.3,87,0.00,,,0.00,WUHU216HW,2013-04-14 12:35:00,
2013-04-14 08:40:00,58.3,54.5,30.03,West,270,0.0,1.3,87,0.00,,,0.00,WUHU216HW,2013-04-14 12:40:00,
2013-04-14 08:45:00,58.3,54.5,30.03,West,270,0.0,0.7,87,0.00,,,0.00,WUHU216HW,2013-04-14 12:45:00,
2013-04-14 08:50:00,58.3,54.5,30.04,WNW,293,0.0,0.0,87,0.00,,,0.00,WUHU216HW,2013-04-14 12:50:00,
2013-04-14 08:55:00,58.3,54.8,30.03,NNW,338,0.7,0.9,88,0.00,,,0.00,WUHU216HW,2013-04-14 12:55:00,
2013-04-14 09:00:00,58.5,55.0,30.03,NNE,23,0.9,1.8,88,0.00,,,0.00,WUHU216HW,2013-04-14 13:00:00,
2013-04-14 09:05:00,58.5,55.0,30.03,North,0,0.4,1.8,88,0.00,,,0.00,WUHU216HW,2013-04-14 13:05:00,
2013-04-14 09:10:00,58.5,54.6,30.04,North,0,0.0,1.1,87,0.00,,,0.00,WUHU216HW,2013-04-14 13:10:00,
2013-04-14 09:15:00,58.5,54.6,30.04,North,0,0.0,0.4,87,0.00,,,0.00,WUHU216HW,2013-04-14 13:15:00,
2013-04-14 09:20:00,58.7,54.8,30.05,North,0,0.0,0.4,87,0.00,,,0.00,WUHU216HW,2013-04-14 13:20:00,
2013-04-14 09:25:00,58.7,54.8,30.05,NNE,23,0.4,0.7,87,0.00,,,0.00,WUHU216HW,2013-04-14 13:25:00,
2013-04-14 09:31:00,59.0,55.2,30.05,NNE,23,0.0,0.7,87,0.00,,,0.00,WUHU216HW,2013-04-14 13:31:00,
2013-04-14 09:36:00,59.0,55.2,30.05,NNW,338,0.7,0.7,87,0.00,,,0.00,WUHU216HW,2013-04-14 13:36:00,
2013-04-14 09:41:00,59.4,55.5,30.05,North,0,0.7,1.3,87,0.00,,,0.00,WUHU216HW,2013-04-14 13:41:00,
2013-04-14 09:46:00,59.4,55.5,30.04,NE,45,1.8,1.8,87,0.00,,,0.00,WUHU216HW,2013-04-14 13:46:00,
2013-04-14 09:51:00,59.4,55.5,30.04,NE,45,0.4,1.8,87,0.00,,,0.00,WUHU216HW,2013-04-14 13:51:00,
2013-04-14 09:56:00,59.6,55.7,30.04,NNE,23,0.7,1.8,87,0.00,,,0.00,WUHU216HW,2013-04-14 13:56:00,
2013-04-14 10:01:00,59.8,55.9,30.04,East,90,0.4,1.6,87,0.00,,,0.00,WUHU216HW,2013-04-14 14:01:00,
2013-04-14 10:06:00,59.9,56.1,30.04,South,180,0.7,0.7,87,0.00,,,0.00,WUHU216HW,2013-04-14 14:06:00,
2013-04-14 10:11:00,60.3,57.1,30.05,SSE,158,1.1,1.1,89,0.00,,,0.00,WUHU216HW,2013-04-14 14:11:00,
2013-04-14 10:16:00,60.7,57.2,30.05,East,90,0.7,1.8,88,0.00,,,0.00,WUHU216HW,2013-04-14 14:16:00,
2013-04-14 10:21:00,60.8,57.3,30.03,NE,45,2.9,3.1,88,0.00,,,0.00,WUHU216HW,2013-04-14 14:21:00,
2013-04-14 10:26:00,61.2,57.7,30.03,ENE,68,1.1,3.1,88,0.00,,,0.00,WUHU216HW,2013-04-14 14:26:00,
2013-04-14 10:31:00,61.6,58.1,30.02,NE,45,2.9,2.9,88,0.00,,,0.00,WUHU216HW,2013-04-14 14:31:00,
2013-04-14 10:36:00,61.7,58.2,30.00,NE,45,4.0,4.0,88,0.00,,,0.00,WUHU216HW,2013-04-14 14:36:00,
2013-04-14 10:41:00,62.1,58.6,29.99,NE,45,2.7,4.5,88,0.00,,,0.00,WUHU216HW,2013-04-14 14:41:00,
2013-04-14 10:46:00,62.6,59.0,29.99,East,90,2.0,4.5,88,0.00,,,0.00,WUHU216HW,2013-04-14 14:46:00,
2013-04-14 10:51:00,63.0,59.1,29.99,NNE,23,3.4,4.7,87,0.00,,,0.00,WUHU216HW,2013-04-14 14:51:00,
2013-04-14 10:56:00,63.4,59.5,30.00,SE,135,0.7,4.7,87,0.00,,,0.00,WUHU216HW,2013-04-14 14:56:00,
2013-04-14 11:01:00,63.7,59.9,30.01,ENE,68,1.8,3.1,87,0.00,,,0.00,WUHU216HW,2013-04-14 15:01:00,
2013-04-14 11:06:00,63.9,59.7,30.03,SW,225,2.0,3.1,86,0.00,,,0.00,WUHU216HW,2013-04-14 15:06:00,
2013-04-14 11:11:00,64.3,60.4,30.03,East,90,1.1,2.9,87,0.00,,,0.00,WUHU216HW,2013-04-14 15:11:00,
2013-04-14 11:16:00,64.4,60.2,30.03,East,90,0.7,1.8,86,0.00,,,0.00,WUHU216HW,2013-04-14 15:16:00,
2013-04-14 11:21:00,64.8,60.2,30.03,SE,135,4.0,4.0,85,0.00,,,0.00,WUHU216HW,2013-04-14 15:21:00,
2013-04-14 11:26:00,65.2,60.6,30.03,SE,135,1.6,4.0,85,0.00,,,0.00,WUHU216HW,2013-04-14 15:26:00,
2013-04-14 11:31:00,65.5,60.8,30.04,SE,135,0.0,2.0,85,0.00,,,0.00,WUHU216HW,2013-04-14 15:31:00,
2013-04-14 11:36:00,65.5,60.8,30.04,SSE,158,2.0,2.0,85,0.00,,,0.00,WUHU216HW,2013-04-14 15:36:00,
2013-04-14 11:41:00,65.7,61.0,30.04,East,90,1.1,2.2,85,0.00,,,0.00,WUHU216HW,2013-04-14 15:41:00,
2013-04-14 11:46:00,65.9,60.9,30.04,East,90,1.6,2.2,84,0.00,,,0.00,WUHU216HW,2013-04-14 15:46:00,
2013-04-14 11:51:00,65.9,60.9,30.03,ESE,113,1.3,1.8,84,0.00,,,0.00,WUHU216HW,2013-04-14 15:51:00,
2013-04-14 11:56:00,66.1,61.0,30.03,NE,45,0.2,1.3,84,0.00,,,0.00,WUHU216HW,2013-04-14 15:56:00,
2013-04-14 12:01:00,66.6,61.6,30.03,NE,45,1.1,1.6,84,0.00,,,0.00,WUHU216HW,2013-04-14 16:01:00,
2013-04-14 12:06:00,66.8,61.5,30.02,NE,45,2.9,3.4,83,0.00,,,0.00,WUHU216HW,2013-04-14 16:06:00,
2013-04-14 12:11:00,67.1,61.8,30.02,NE,45,2.2,3.4,83,0.00,,,0.00,WUHU216HW,2013-04-14 16:11:00,
2013-04-14 12:16:00,67.3,62.0,30.01,NE,45,1.8,2.7,83,0.00,,,0.00,WUHU216HW,2013-04-14 16:16:00,
2013-04-14 12:21:00,67.7,62.0,30.00,NE,45,2.5,2.7,82,0.00,,,0.00,WUHU216HW,2013-04-14 16:21:00,
2013-04-14 12:26:00,67.7,62.0,30.00,NE,45,2.5,2.5,82,0.00,,,0.00,WUHU216HW,2013-04-14 16:26:00,
2013-04-14 12:31:00,68.0,62.4,30.01,ENE,68,1.1,2.5,82,0.00,,,0.00,WUHU216HW,2013-04-14 16:31:00,
2013-04-14 12:36:00,68.0,62.4,30.02,North,0,0.4,2.2,82,0.00,,,0.00,WUHU216HW,2013-04-14 16:36:00,
2013-04-14 12:41:00,68.0,62.4,30.03,WSW,248,0.7,1.1,82,0.00,,,0.00,WUHU216HW,2013-04-14 16:41:00,
2013-04-14 12:46:00,67.9,62.2,30.04,WSW,248,0.4,1.3,82,0.00,,,0.00,WUHU216HW,2013-04-14 16:46:00,
2013-04-14 12:51:00,68.0,62.4,30.04,West,270,0.0,1.3,82,0.00,,,0.00,WUHU216HW,2013-04-14 16:51:00,
2013-04-14 12:57:00,67.9,62.2,30.04,NNW,338,0.0,0.4,82,0.00,,,0.00,WUHU216HW,2013-04-14 16:57:00,
2013-04-14 13:02:00,68.0,62.4,30.04,SSE,158,0.0,0.7,82,0.00,,,0.00,WUHU216HW,2013-04-14 17:02:00,
2013-04-14 13:07:00,68.0,62.4,30.03,NE,45,1.1,1.1,82,0.00,,,0.00,WUHU216HW,2013-04-14 17:07:00,
2013-04-14 13:12:00,68.0,62.4,30.03,NE,45,0.4,1.1,82,0.00,,,0.00,WUHU216HW,2013-04-14 17:12:00,
2013-04-14 13:17:00,68.0,62.7,30.03,NE,45,0.4,1.1,83,0.00,,,0.00,WUHU216HW,2013-04-14 17:17:00,
2013-04-14 13:22:00,68.0,62.7,30.04,West,270,0.4,0.4,83,0.00,,,0.00,WUHU216HW,2013-04-14 17:22:00,
2013-04-14 13:27:00,67.9,62.6,30.04,NNW,338,0.4,1.1,83,0.00,,,0.00,WUHU216HW,2013-04-14 17:27:00,
2013-04-14 13:32:00,67.9,62.8,30.04,NNW,338,0.9,1.1,84,0.00,,,0.00,WUHU216HW,2013-04-14 17:32:00,
2013-04-14 13:37:00,67.7,62.6,30.03,North,0,0.9,1.1,84,0.01,,,0.01,WUHU216HW,2013-04-14 17:37:00,
2013-04-14 13:42:00,67.7,62.6,30.03,North,0,0.4,1.1,84,0.01,,,0.01,WUHU216HW,2013-04-14 17:42:00,
2013-04-14 13:47:00,67.5,62.8,30.03,NE,45,1.1,1.1,85,0.02,,,0.02,WUHU216HW,2013-04-14 17:47:00,
2013-04-14 13:52:00,67.7,63.0,30.03,NE,45,0.0,1.1,85,0.02,,,0.02,WUHU216HW,2013-04-14 17:52:00,
2013-04-14 13:57:00,67.7,63.4,30.03,ENE,68,0.9,1.1,86,0.03,,,0.03,WUHU216HW,2013-04-14 17:57:00,
2013-04-14 14:02:00,67.7,63.6,30.02,ENE,68,0.4,1.6,87,0.03,,,0.03,WUHU216HW,2013-04-14 18:02:00,
2013-04-14 14:07:00,67.7,63.4,30.03,SW,225,0.9,1.6,86,0.03,,,0.03,WUHU216HW,2013-04-14 18:07:00,
2013-04-14 14:12:00,67.5,63.5,30.03,NNE,23,0.9,1.3,87,0.04,,,0.04,WUHU216HW,2013-04-14 18:12:00,
2013-04-14 14:17:00,67.5,63.5,30.03,NNE,23,0.0,1.3,87,0.04,,,0.04,WUHU216HW,2013-04-14 18:17:00,
2013-04-14 14:22:00,67.5,63.5,30.03,NNE,23,0.7,0.7,87,0.05,,,0.05,WUHU216HW,2013-04-14 18:22:00,
2013-04-14 14:27:00,67.5,63.5,30.03,ENE,68,0.0,0.9,87,0.05,,,0.05,WUHU216HW,2013-04-14 18:27:00,
2013-04-14 14:32:00,67.5,63.8,30.03,ENE,68,0.0,0.9,88,0.05,,,0.05,WUHU216HW,2013-04-14 18:32:00,
2013-04-14 14:37:00,67.3,63.6,30.02,ENE,68,1.3,1.8,88,0.05,,,0.06,WUHU216HW,2013-04-14 18:37:00,
2013-04-14 14:42:00,67.1,63.7,30.00,NE,45,2.5,3.4,89,0.06,,,0.07,WUHU216HW,2013-04-14 18:42:00,
2013-04-14 14:47:00,67.3,63.6,30.00,SE,135,0.9,3.4,88,0.05,,,0.07,WUHU216HW,2013-04-14 18:47:00,
2013-04-14 14:52:00,67.3,64.3,30.00,ENE,68,2.0,3.6,90,0.05,,,0.08,WUHU216HW,2013-04-14 18:52:00,
2013-04-14 14:57:00,67.1,63.7,29.99,ESE,113,2.9,3.6,89,0.05,,,0.08,WUHU216HW,2013-04-14 18:57:00,
2013-04-14 15:02:00,67.1,64.1,30.00,SSE,158,3.4,3.4,90,0.05,,,0.08,WUHU216HW,2013-04-14 19:02:00,
2013-04-14 15:07:00,67.0,63.5,29.99,ESE,113,0.9,3.4,89,0.05,,,0.08,WUHU216HW,2013-04-14 19:07:00,
2013-04-14 15:12:00,67.0,63.5,29.99,ESE,113,1.8,2.9,89,0.04,,,0.08,WUHU216HW,2013-04-14 19:12:00,
2013-04-14 15:17:00,66.8,63.1,29.99,SE,135,2.0,2.2,88,0.05,,,0.09,WUHU216HW,2013-04-14 19:17:00,
2013-04-14 15:22:00,66.8,63.1,29.99,SSE,158,3.4,3.4,88,0.04,,,0.09,WUHU216HW,2013-04-14 19:22:00,
2013-04-14 15:27:00,66.6,62.9,29.98,SE,135,4.0,4.0,88,0.04,,,0.09,WUHU216HW,2013-04-14 19:27:00,
2013-04-14 15:32:00,66.6,62.3,29.98,ENE,68,2.5,4.0,86,0.03,,,0.09,WUHU216HW,2013-04-14 19:32:00,
2013-04-14 15:37:00,66.4,61.7,29.98,SSE,158,2.7,5.1,85,0.02,,,0.09,WUHU216HW,2013-04-14 19:37:00,
2013-04-14 15:42:00,66.2,61.6,29.97,SE,135,0.4,5.1,85,0.02,,,0.09,WUHU216HW,2013-04-14 19:42:00,
2013-04-14 15:47:00,66.2,61.2,29.97,ESE,113,4.0,4.7,84,0.02,,,0.09,WUHU216HW,2013-04-14 19:47:00,
2013-04-14 15:52:00,65.9,60.2,29.97,SE,135,1.3,4.7,82,0.01,,,0.09,WUHU216HW,2013-04-14 19:52:00,
2013-04-14 15:57:00,65.7,60.0,29.96,ESE,113,1.8,2.7,82,0.01,,,0.09,WUHU216HW,2013-04-14 19:57:00,
2013-04-14 16:02:00,65.5,59.9,29.96,ESE,113,2.5,2.5,82,0.01,,,0.09,WUHU216HW,2013-04-14 20:02:00,
2013-04-14 16:07:00,65.3,59.4,29.96,East,90,1.3,3.4,81,0.01,,,0.09,WUHU216HW,2013-04-14 20:07:00,
2013-04-14 16:12:00,65.2,59.2,29.95,ESE,113,0.9,3.4,81,0.00,,,0.09,WUHU216HW,2013-04-14 20:12:00,
2013-04-14 16:17:00,65.2,59.2,29.95,South,180,1.1,2.0,81,0.00,,,0.09,WUHU216HW,2013-04-14 20:17:00,
2013-04-14 16:22:00,65.0,58.7,29.95,SSE,158,3.6,4.7,80,0.00,,,0.09,WUHU216HW,2013-04-14 20:22:00,
2013-04-14 16:27:00,64.8,58.5,29.96,NNE,23,1.8,5.1,80,0.00,,,0.09,WUHU216HW,2013-04-14 20:27:00,
2013-04-14 16:32:00,64.8,58.5,29.95,ESE,113,1.8,5.1,80,0.00,,,0.09,WUHU216HW,2013-04-14 20:32:00,
2013-04-14 16:37:00,64.8,58.5,29.94,SSE,158,2.2,2.2,80,0.00,,,0.09,WUHU216HW,2013-04-14 20:37:00,
2013-04-14 16:42:00,65.0,58.3,29.94,ENE,68,1.6,4.7,79,0.00,,,0.09,WUHU216HW,2013-04-14 20:42:00,
2013-04-14 16:47:00,65.2,58.5,29.93,ESE,113,0.7,4.7,79,0.00,,,0.09,WUHU216HW,2013-04-14 20:47:00,
2013-04-14 16:52:00,65.0,58.7,29.93,ESE,113,4.3,4.3,80,0.00,,,0.09,WUHU216HW,2013-04-14 20:52:00,
2013-04-14 16:57:00,65.0,58.7,29.93,SE,135,3.4,4.3,80,0.00,,,0.09,WUHU216HW,2013-04-14 20:57:00,
2013-04-14 17:02:00,65.0,59.1,29.93,SE,135,3.8,4.3,81,0.00,,,0.09,WUHU216HW,2013-04-14 21:02:00,
2013-04-14 17:07:00,65.0,59.1,29.93,ESE,113,5.4,5.4,81,0.00,,,0.09,WUHU216HW,2013-04-14 21:07:00,
2013-04-14 17:12:00,65.0,58.7,29.93,SSE,158,4.3,5.8,80,0.00,,,0.09,WUHU216HW,2013-04-14 21:12:00,
2013-04-14 17:18:00,65.2,58.9,29.93,SE,135,3.8,5.8,80,0.00,,,0.09,WUHU216HW,2013-04-14 21:18:00,
2013-04-14 17:23:00,65.2,58.9,29.92,ESE,113,6.3,6.3,80,0.00,,,0.09,WUHU216HW,2013-04-14 21:23:00,
2013-04-14 17:28:00,65.0,58.3,29.92,SE,135,1.6,6.3,79,0.00,,,0.09,WUHU216HW,2013-04-14 21:28:00,
2013-04-14 17:33:00,64.8,57.8,29.91,ENE,68,2.9,5.4,78,0.00,,,0.09,WUHU216HW,2013-04-14 21:33:00,
2013-04-14 17:38:00,64.8,57.4,29.91,NNE,23,1.1,6.3,77,0.00,,,0.09,WUHU216HW,2013-04-14 21:38:00,
2013-04-14 17:43:00,64.8,57.4,29.91,East,90,1.6,6.3,77,0.00,,,0.09,WUHU216HW,2013-04-14 21:43:00,
2013-04-14 17:48:00,64.8,57.8,29.91,East,90,0.4,3.4,78,0.00,,,0.09,WUHU216HW,2013-04-14 21:48:00,
2013-04-14 17:53:00,64.6,58.0,29.91,SE,135,1.8,4.5,79,0.00,,,0.09,WUHU216HW,2013-04-14 21:53:00,
2013-04-14 17:58:00,64.4,58.1,29.92,SSE,158,3.8,4.5,80,0.00,,,0.09,WUHU216HW,2013-04-14 21:58:00,
2013-04-14 18:03:00,64.4,58.1,29.91,East,90,0.9,3.8,80,0.00,,,0.09,WUHU216HW,2013-04-14 22:03:00,
2013-04-14 18:08:00,64.3,58.3,29.91,ENE,68,2.5,3.6,81,0.00,,,0.09,WUHU216HW,2013-04-14 22:08:00,
2013-04-14 18:13:00,64.4,58.5,29.91,SE,135,4.5,4.5,81,0.00,,,0.09,WUHU216HW,2013-04-14 22:13:00,
2013-04-14 18:18:00,64.3,58.7,29.91,SE,135,5.1,5.4,82,0.00,,,0.09,WUHU216HW,2013-04-14 22:18:00,
2013-04-14 18:23:00,64.1,58.2,29.91,East,90,1.8,5.4,81,0.00,,,0.09,WUHU216HW,2013-04-14 22:23:00,
2013-04-14 18:28:00,63.9,58.3,29.91,ENE,68,3.4,4.0,82,0.01,,,0.09,WUHU216HW,2013-04-14 22:28:00,
2013-04-14 18:33:00,63.5,58.2,29.92,ESE,113,3.4,4.5,83,0.01,,,0.10,WUHU216HW,2013-04-14 22:33:00,
2013-04-14 18:38:00,63.4,58.1,29.92,North,0,0.7,4.5,83,0.02,,,0.12,WUHU216HW,2013-04-14 22:38:00,
2013-04-14 18:43:00,63.2,57.9,29.93,North,0,0.4,1.1,83,0.03,,,0.12,WUHU216HW,2013-04-14 22:43:00,
2013-04-14 18:48:00,63.0,58.1,29.94,NNW,338,1.6,2.2,84,0.12,,,0.21,WUHU216HW,2013-04-14 22:48:00,
2013-04-14 18:53:00,62.8,58.2,29.93,NNW,338,0.9,2.2,85,0.19,,,0.28,WUHU216HW,2013-04-14 22:53:00,
2013-04-14 18:58:00,62.8,58.2,29.93,North,0,0.0,1.8,85,0.20,,,0.30,WUHU216HW,2013-04-14 22:58:00,
2013-04-14 19:03:00,62.6,58.4,29.93,North,0,0.9,1.8,86,0.20,,,0.30,WUHU216HW,2013-04-14 23:03:00,
2013-04-14 19:08:00,62.6,58.4,29.93,NNE,23,0.4,1.1,86,0.21,,,0.31,WUHU216HW,2013-04-14 23:08:00,
2013-04-14 19:13:00,62.6,58.8,29.93,NNE,23,0.2,0.9,87,0.21,,,0.31,WUHU216HW,2013-04-14 23:13:00,
2013-04-14 19:18:00,62.6,58.8,29.92,NE,45,2.2,2.2,87,0.21,,,0.31,WUHU216HW,2013-04-14 23:18:00,
2013-04-14 19:23:00,62.5,58.6,29.91,NE,45,1.1,2.2,87,0.21,,,0.31,WUHU216HW,2013-04-14 23:23:00,
2013-04-14 19:28:00,62.5,58.6,29.91,NE,45,1.1,2.0,87,0.20,,,0.31,WUHU216HW,2013-04-14 23:28:00,
2013-04-14 19:33:00,62.3,58.4,29.91,North,0,1.8,2.0,87,0.19,,,0.31,WUHU216HW,2013-04-14 23:33:00,
2013-04-14 19:38:00,62.3,58.4,29.91,NNE,23,0.7,1.8,87,0.18,,,0.31,WUHU216HW,2013-04-14 23:38:00,
2013-04-14 19:43:00,62.3,58.4,29.91,NNE,23,0.4,1.8,87,0.17,,,0.32,WUHU216HW,2013-04-14 23:43:00,
2013-04-14 19:48:00,62.3,58.7,29.91,North,0,0.9,1.8,88,0.10,,,0.32,WUHU216HW,2013-04-14 23:48:00,
2013-04-14 19:53:00,62.1,58.6,29.91,NNE,23,1.1,1.3,88,0.02,,,0.32,WUHU216HW,2013-04-14 23:53:00,
2013-04-14 19:58:00,62.1,58.6,29.92,NNE,23,0.4,1.1,88,0.03,,,0.33,WUHU216HW,2013-04-14 23:58:00,
2013-04-14 20:03:00,62.1,58.6,29.92,North,0,0.7,1.1,88,0.03,,,0.34,WUHU216HW,2013-04-15 00:03:00,
2013-04-14 20:08:00,62.1,58.9,29.92,North,0,0.7,1.1,89,0.04,,,0.35,WUHU216HW,2013-04-15 00:08:00,
2013-04-14 20:13:00,62.1,58.9,29.92,NE,45,1.8,1.8,89,0.05,,,0.36,WUHU216HW,2013-04-15 00:13:00,
2013-04-14 20:18:00,61.9,58.7,29.92,NE,45,0.7,1.8,89,0.06,,,0.37,WUHU216HW,2013-04-15 00:18:00,
2013-04-14 20:23:00,61.9,58.7,29.93,NE,45,0.0,1.6,89,0.07,,,0.38,WUHU216HW,2013-04-15 00:23:00,
2013-04-14 20:28:00,61.9,58.7,29.93,NNE,23,0.4,1.1,89,0.09,,,0.40,WUHU216HW,2013-04-15 00:28:00,
2013-04-14 20:33:00,61.7,58.5,29.92,NE,45,1.6,2.5,89,0.10,,,0.41,WUHU216HW,2013-04-15 00:33:00,
2013-04-14 20:38:00,61.7,58.5,29.91,NE,45,1.3,2.5,89,0.10,,,0.41,WUHU216HW,2013-04-15 00:38:00,
2013-04-14 20:43:00,61.7,58.9,29.91,NNE,23,2.5,2.9,90,0.09,,,0.41,WUHU216HW,2013-04-15 00:43:00,
2013-04-14 20:48:00,61.6,58.7,29.90,NNE,23,3.1,3.1,90,0.10,,,0.42,WUHU216HW,2013-04-15 00:48:00,
2013-04-14 20:53:00,61.6,58.7,29.90,NE,45,2.5,3.1,90,0.10,,,0.43,WUHU216HW,2013-04-15 00:53:00,
2013-04-14 20:58:00,61.6,58.7,29.89,NNE,23,3.6,4.9,90,0.12,,,0.45,WUHU216HW,2013-04-15 00:58:00,
2013-04-14 21:03:00,61.6,58.7,29.88,NNE,23,2.5,4.9,90,0.13,,,0.47,WUHU216HW,2013-04-15 01:03:00,
2013-04-14 21:08:00,61.4,58.5,29.89,NE,45,1.8,4.0,90,0.12,,,0.47,WUHU216HW,2013-04-15 01:08:00,
2013-04-14 21:13:00,61.4,58.5,29.88,North,0,2.2,2.5,90,0.12,,,0.48,WUHU216HW,2013-04-15 01:13:00,
2013-04-14 21:18:00,61.4,58.8,29.89,North,0,2.7,3.1,91,0.11,,,0.48,WUHU216HW,2013-04-15 01:18:00,
2013-04-14 21:23:00,61.4,58.5,29.95,WNW,293,7.8,7.8,90,0.10,,,0.48,WUHU216HW,2013-04-15 01:23:00,
2013-04-14 21:28:00,61.4,58.8,29.97,NNW,338,3.4,7.8,91,0.14,,,0.53,WUHU216HW,2013-04-15 01:28:00,
2013-04-14 21:33:00,61.2,59.2,29.92,WNW,293,2.2,6.3,93,0.47,,,0.79,WUHU216HW,2013-04-15 01:33:00,
2013-04-14 21:38:00,61.0,58.7,29.97,NW,315,7.4,10.5,92,0.60,,,0.98,WUHU216HW,2013-04-15 01:38:00,
2013-04-14 21:43:00,60.8,58.5,29.96,WSW,248,6.5,10.5,92,0.62,,,1.03,WUHU216HW,2013-04-15 01:43:00,
2013-04-14 21:48:00,60.8,58.5,29.96,North,0,2.0,7.4,92,0.60,,,1.03,WUHU216HW,2013-04-15 01:48:00,
2013-04-14 21:53:00,60.7,58.3,29.95,North,0,1.3,7.4,92,0.59,,,1.03,WUHU216HW,2013-04-15 01:53:00,
2013-04-14 21:58:00,60.5,58.1,29.95,SW,225,0.7,2.2,92,0.57,,,1.03,WUHU216HW,2013-04-15 01:58:00,
2013-04-14 22:03:00,60.5,58.1,29.96,North,0,1.1,2.0,92,0.56,,,1.03,WUHU216HW,2013-04-15 02:03:00,
2013-04-14 22:08:00,60.5,58.1,29.96,North,0,0.4,1.8,92,0.55,,,1.03,WUHU216HW,2013-04-15 02:08:00,
2013-04-14 22:13:00,60.5,58.1,29.96,NE,45,1.8,1.8,92,0.55,,,1.03,WUHU216HW,2013-04-15 02:13:00,
2013-04-14 22:18:00,60.5,58.1,29.95,NE,45,2.5,2.5,92,0.55,,,1.03,WUHU216HW,2013-04-15 02:18:00,
2013-04-14 22:23:00,60.3,58.0,29.95,NNE,23,1.1,2.5,92,0.55,,,1.03,WUHU216HW,2013-04-15 02:23:00,
2013-04-14 22:28:00,60.3,58.0,29.95,NNE,23,0.4,2.5,92,0.28,,,1.03,WUHU216HW,2013-04-15 02:28:00,
2013-04-14 22:33:00,60.3,58.0,29.95,NE,45,2.7,2.7,92,0.07,,,1.03,WUHU216HW,2013-04-15 02:33:00,
2013-04-14 22:38:00,60.3,57.7,29.95,NNE,23,0.4,2.7,91,0.00,,,1.03,WUHU216HW,2013-04-15 02:38:00,
2013-04-14 22:43:00,60.3,58.0,29.95,SSW,203,1.8,2.5,92,0.00,,,1.03,WUHU216HW,2013-04-15 02:43:00,
2013-04-14 22:48:00,60.3,58.0,29.95,NNE,23,0.9,1.8,92,0.00,,,1.03,WUHU216HW,2013-04-15 02:48:00,
2013-04-14 22:53:00,60.1,57.8,29.95,NE,45,4.0,4.0,92,0.00,,,1.03,WUHU216HW,2013-04-15 02:53:00,
2013-04-14 22:58:00,60.1,57.8,29.94,NE,45,2.2,4.0,92,0.00,,,1.03,WUHU216HW,2013-04-15 02:58:00,
2013-04-14 23:03:00,60.1,57.8,29.93,NNE,23,1.1,3.8,92,0.00,,,1.03,WUHU216HW,2013-04-15 03:03:00,
2013-04-14 23:08:00,60.1,57.8,29.90,East,90,2.5,3.1,92,0.00,,,1.03,WUHU216HW,2013-04-15 03:08:00,
2013-04-14 23:13:00,59.9,58.0,29.88,ENE,68,2.9,3.1,93,0.00,,,1.03,WUHU216HW,2013-04-15 03:13:00,
2013-04-14 23:18:00,59.8,57.4,29.87,North,0,1.1,3.4,92,0.00,,,1.03,WUHU216HW,2013-04-15 03:18:00,
2013-04-14 23:23:00,59.8,57.8,29.85,NE,45,3.1,3.8,93,0.00,,,1.03,WUHU216HW,2013-04-15 03:23:00,
2013-04-14 23:28:00,59.8,57.8,29.85,NNE,23,1.1,3.8,93,0.00,,,1.03,WUHU216HW,2013-04-15 03:28:00,
2013-04-14 23:33:00,59.9,58.0,29.88,North,0,0.7,3.6,93,0.00,,,1.03,WUHU216HW,2013-04-15 03:33:00,
2013-04-14 23:38:00,59.9,58.0,29.89,NNE,23,0.0,1.8,93,0.00,,,1.03,WUHU216HW,2013-04-15 03:38:00,
2013-04-14 23:43:00,60.1,58.2,29.87,ENE,68,2.5,2.5,93,0.00,,,1.03,WUHU216HW,2013-04-15 03:43:00,
2013-04-14 23:48:00,60.1,58.2,29.87,NE,45,1.8,2.7,93,0.00,,,1.03,WUHU216HW,2013-04-15 03:48:00,
2013-04-14 23:53:00,60.1,58.2,29.88,NNE,23,0.4,2.7,93,0.00,,,1.03,WUHU216HW,2013-04-15 03:53:00,
2013-04-14 23:58:00,60.1,58.2,29.88,NE,45,0.9,1.1,93,0.00,,,1.03,WUHU216HW,2013-04-15 03:58:00,